Fayetteville, AR

6:56 AM CDT on October 22, 2017 (GMT -0500)
Drake

Weather History for KFYV - May, 2013

Change the Weather History Date:

Tuesday, May 7, 2013

  Actual Average Record
Temperature  
Mean Temperature 58 °F 63 °F  
Max Temperature 76 °F 74 °F 88 °F (1955)
Min Temperature 40 °F 52 °F 33 °F (1992)
Degree Days  
Heating Degree Days 7    
Cooling Degree Days 0 2  
Month to date cooling degree days 1 9  
Year to date cooling degree days 30 37  
Growing Degree Days 8 (Base 50)    
Moisture  
Dew Point 48 °F    
Average Humidity 71    
Maximum Humidity 100    
Minimum Humidity 41    
Precipitation  
Precipitation 0.00 in 0.19 in 1.05 in (2007)
Month to date precipitation 1.07 1.38  
Year to date precipitation 16.93 15.55  
Sea Level Pressure  
Sea Level Pressure 30.05 in    
Wind  
Wind Speed 1 mph (SW)    
Max Wind Speed 8 mph    
Max Gust Speed 12 mph    
Visibility 8 miles    
Events      
T = Trace of Precipitation, MM = Missing Value Source: NWS Daily Summary

Daily Weather History Graph

Daily Weather History Graph

Search for Another Location

Airport or City:

Trip Planner

Search our weather history database for the weather conditions in past years. The results will help you decide how hot, cold, wet, or windy it might be!

Date:

Astronomy

May. 07, 2013 Rise Set
Actual Time 6:17 AM CDT 8:09 PM CDT
Civil Twilight 5:49 AM CDT 8:37 PM CDT
Nautical Twilight 5:15 AM CDT 9:11 PM CDT
Astronomical Twilight 4:39 AM CDT 9:47 PM CDT
Moon 4:48 AM CDT (5/7) 6:12 PM CDT (5/7)
Length of Visible Light 14h 47m
Length of Day
13h 51m
Waning Crescent, 5% of the Moon is Illuminated
May 7
Waning Crescent
May 9
New
May 17
First Quarter
May 24
Full
May 31
Last Quarter

Hourly Weather History & Observations

Time (CDT) Temp. Dew Point Humidity Pressure Visibility Wind Dir Wind Speed Gust Speed Precip Events Conditions
12:45 AM 44.6 °F 44.6 °F 100% 30.09 in 1.5 mi Calm Calm - N/A   Partly Cloudy
12:53 AM 45.0 °F 45.0 °F 100% 30.09 in 1.2 mi Calm Calm - N/A   Partly Cloudy
12:56 AM 44.6 °F 44.6 °F 100% 30.09 in 3.0 mi Calm Calm - N/A   Partly Cloudy
1:53 AM 44.1 °F 44.1 °F 100% 30.07 in 6.0 mi Calm Calm - N/A   Clear
2:53 AM 42.8 °F 42.8 °F 100% 30.06 in 5.0 mi Calm Calm - N/A   Clear
3:08 AM 42.8 °F 42.8 °F 100% 30.06 in 8.0 mi Calm Calm - N/A   Scattered Clouds
3:18 AM 42.8 °F 42.8 °F 100% 30.06 in 7.0 mi Calm Calm - N/A   Mostly Cloudy
3:53 AM 43.0 °F 43.0 °F 100% 30.06 in 9.0 mi Calm Calm - N/A   Mostly Cloudy
4:03 AM 42.8 °F 42.8 °F 100% 30.06 in 9.0 mi Calm Calm - N/A   Scattered Clouds
4:53 AM 42.1 °F 42.1 °F 100% 30.06 in 7.0 mi Calm Calm - N/A   Clear
5:53 AM 41.0 °F 41.0 °F 100% 30.06 in 4.0 mi Calm Calm - N/A   Clear
6:53 AM 41.0 °F 41.0 °F 100% 30.08 in 7.0 mi Calm Calm - N/A   Partly Cloudy
7:53 AM 46.0 °F 46.0 °F 100% 30.09 in 8.0 mi Calm Calm - N/A   Clear
8:53 AM 54.0 °F 51.1 °F 90% 30.10 in 10.0 mi Calm Calm - N/A   Clear
9:53 AM 64.0 °F 55.0 °F 73% 30.10 in 10.0 mi Calm Calm - N/A   Clear
10:53 AM 68.0 °F 54.0 °F 61% 30.09 in 10.0 mi Calm Calm - N/A   Clear
11:53 AM 69.1 °F 54.0 °F 58% 30.09 in 10.0 mi West 4.6 mph - N/A   Clear
12:53 PM 71.1 °F 50.0 °F 47% 30.07 in 10.0 mi South 3.5 mph - N/A   Clear
1:53 PM 73.0 °F 48.9 °F 42% 30.05 in 10.0 mi Calm Calm - N/A   Clear
2:53 PM 73.0 °F 51.1 °F 46% 30.04 in 10.0 mi Calm Calm - N/A   Clear
3:53 PM 75.0 °F 51.1 °F 43% 30.01 in 10.0 mi Calm Calm - N/A   Clear
4:53 PM 75.0 °F 51.1 °F 43% 30.00 in 10.0 mi Calm Calm - N/A   Partly Cloudy
5:53 PM 75.0 °F 51.1 °F 43% 29.99 in 10.0 mi WNW 3.5 mph - N/A   Clear
6:53 PM 73.9 °F 51.1 °F 45% 29.99 in 10.0 mi Calm Calm - N/A   Clear
7:53 PM 66.0 °F 55.0 °F 68% 29.99 in 10.0 mi Calm Calm - N/A   Clear
8:53 PM 59.0 °F 54.0 °F 83% 30.01 in 10.0 mi South 3.5 mph - N/A   Clear
9:53 PM 57.0 °F 53.1 °F 87% 30.01 in 10.0 mi Calm Calm - N/A   Clear
10:53 PM 54.0 °F 53.1 °F 97% 30.02 in 10.0 mi Calm Calm - N/A   Clear
11:53 PM 52.0 °F 52.0 °F 100% 30.02 in 10.0 mi Calm Calm - N/A   Clear